Time,TemperatureF,DewpointF,PressureIn,WindDirection,WindDirectionDegrees,WindSpeedMPH,WindSpeedGustMPH,Humidity,HourlyPrecipIn,Conditions,Clouds,dailyrainin,SoftwareType,DateUTC
2013-02-07 00:15:00,21.4,0.3,30.32,West,269,0.0,0.0,39,0.00,,CLR,0.00,VWS V14.00,2013-02-07 05:15:00,
2013-02-07 00:30:00,20.8,0.3,30.32,West,268,0.0,0.0,40,0.00,,CLR,0.00,VWS V14.00,2013-02-07 05:30:00,
2013-02-07 00:45:00,20.1,0.2,30.32,West,269,0.0,0.0,41,0.00,,CLR,0.00,VWS V14.00,2013-02-07 05:45:00,
2013-02-07 01:00:00,19.9,0.6,30.32,West,268,0.0,4.5,42,0.00,,CLR,0.00,VWS V14.00,2013-02-07 06:00:00,
2013-02-07 01:15:00,20.1,0.7,30.32,West,268,0.0,0.0,42,0.00,,CLR,0.00,VWS V14.00,2013-02-07 06:15:00,
2013-02-07 01:30:00,20.1,1.2,30.32,West,268,0.0,44.7,43,0.00,,CLR,0.00,VWS V14.00,2013-02-07 06:30:00,
2013-02-07 01:45:00,19.9,1.1,30.32,West,268,0.0,0.0,43,0.00,,CLR,0.00,VWS V14.00,2013-02-07 06:45:00,
2013-02-07 02:00:00,20.5,1.5,30.32,West,269,0.0,0.0,43,0.00,,CLR,0.00,VWS V14.00,2013-02-07 07:00:00,
2013-02-07 02:15:00,20.3,1.4,30.35,West,268,0.0,0.0,43,0.00,,CLR,0.00,VWS V14.00,2013-02-07 07:15:00,
2013-02-07 02:30:00,20.1,1.2,30.35,West,269,0.0,0.0,43,0.00,,CLR,0.00,VWS V14.00,2013-02-07 07:30:00,
2013-02-07 02:45:00,19.8,1.4,30.35,West,269,0.0,0.0,44,0.00,,CLR,0.00,VWS V14.00,2013-02-07 07:45:00,
2013-02-07 03:00:00,19.6,1.2,30.35,West,269,0.0,0.0,44,0.00,,CLR,0.00,VWS V14.00,2013-02-07 08:00:00,
2013-02-07 03:15:00,19.2,1.4,30.35,West,269,0.0,0.0,45,0.00,,CLR,0.00,VWS V14.00,2013-02-07 08:15:00,
2013-02-07 03:30:00,19.2,1.4,30.35,West,269,0.0,0.0,45,0.00,,CLR,0.00,VWS V14.00,2013-02-07 08:30:00,
2013-02-07 03:45:00,19.0,1.2,30.35,West,269,0.0,0.0,45,0.00,,CLR,0.00,VWS V14.00,2013-02-07 08:45:00,
2013-02-07 04:00:00,19.0,1.2,30.35,West,269,0.0,4.5,45,0.00,,CLR,0.00,VWS V14.00,2013-02-07 09:00:00,
2013-02-07 04:15:00,18.9,1.0,30.38,West,269,0.0,0.0,45,0.00,,CLR,0.00,VWS V14.00,2013-02-07 09:15:00,
2013-02-07 04:30:00,18.7,0.9,30.35,West,269,0.0,0.0,45,0.00,,CLR,0.00,VWS V14.00,2013-02-07 09:30:00,
2013-02-07 04:45:00,18.7,1.4,30.35,West,269,0.0,0.0,46,0.00,,CLR,0.00,VWS V14.00,2013-02-07 09:45:00,
2013-02-07 05:00:00,18.9,1.5,30.35,West,269,0.0,0.0,46,0.00,,CLR,0.00,VWS V14.00,2013-02-07 10:00:00,
2013-02-07 05:15:00,19.0,1.7,30.35,West,269,0.0,0.0,46,0.00,,CLR,0.00,VWS V14.00,2013-02-07 10:15:00,
2013-02-07 05:30:00,19.0,2.1,30.35,West,269,0.0,0.0,47,0.00,,CLR,0.00,VWS V14.00,2013-02-07 10:30:00,
2013-02-07 05:45:00,19.2,2.3,30.38,West,269,0.0,0.0,47,0.00,,CLR,0.00,VWS V14.00,2013-02-07 10:45:00,
2013-02-07 06:00:00,19.4,2.5,30.38,West,269,0.0,0.4,47,0.00,,CLR,0.00,VWS V14.00,2013-02-07 11:00:00,
2013-02-07 06:15:00,18.9,2.0,30.38,West,269,0.0,0.0,47,0.00,,CLR,0.00,VWS V14.00,2013-02-07 11:15:00,
2013-02-07 06:30:00,19.0,2.1,30.38,West,269,0.0,0.0,47,0.00,,CLR,0.00,VWS V14.00,2013-02-07 11:30:00,
2013-02-07 06:45:00,18.5,1.6,30.41,West,269,0.0,0.0,47,0.00,,CLR,0.00,VWS V14.00,2013-02-07 11:45:00,
2013-02-07 07:00:00,18.9,2.4,30.41,West,269,0.0,0.0,48,0.00,,CLR,0.00,VWS V14.00,2013-02-07 12:00:00,
2013-02-07 07:15:00,18.7,2.3,30.41,West,261,0.0,0.0,48,0.00,,CLR,0.00,VWS V14.00,2013-02-07 12:15:00,
2013-02-07 07:30:00,19.0,3.0,30.41,West,269,0.0,0.0,49,0.00,,CLR,0.00,VWS V14.00,2013-02-07 12:30:00,
2013-02-07 07:45:00,19.6,3.5,30.41,West,269,0.0,0.0,49,0.00,,CLR,0.00,VWS V14.00,2013-02-07 12:45:00,
2013-02-07 08:00:00,19.9,3.9,30.41,West,269,0.0,0.0,49,0.00,,CLR,0.00,VWS V14.00,2013-02-07 13:00:00,
2013-02-07 08:15:00,20.3,4.2,30.41,SSW,201,0.0,4.7,49,0.00,,CLR,0.00,VWS V14.00,2013-02-07 13:15:00,
2013-02-07 08:30:00,21.2,5.0,30.41,South,183,0.0,4.5,49,0.00,,CLR,0.00,VWS V14.00,2013-02-07 13:30:00,
2013-02-07 08:45:00,21.6,4.9,30.41,WNW,298,0.0,3.6,48,0.00,,CLR,0.00,VWS V14.00,2013-02-07 13:45:00,
2013-02-07 09:00:00,22.5,3.9,30.41,SSE,168,0.0,5.1,44,0.00,,CLR,0.00,VWS V14.00,2013-02-07 14:00:00,
2013-02-07 09:15:00,23.9,5.2,30.41,SSE,168,0.0,3.1,44,0.00,,CLR,0.00,VWS V14.00,2013-02-07 14:15:00,
2013-02-07 09:30:00,24.8,5.5,30.41,SSE,168,0.0,0.0,43,0.00,,CLR,0.00,VWS V14.00,2013-02-07 14:30:00,
2013-02-07 09:45:00,25.3,3.9,30.41,SSE,168,0.0,0.0,39,0.00,,CLR,0.00,VWS V14.00,2013-02-07 14:45:00,
2013-02-07 10:00:00,25.9,3.2,30.41,SSE,168,0.0,0.0,37,0.00,,CLR,0.00,VWS V14.00,2013-02-07 15:00:00,
2013-02-07 10:15:00,27.0,3.6,30.41,SSE,168,0.0,0.0,36,0.00,,CLR,0.00,VWS V14.00,2013-02-07 15:15:00,
2013-02-07 10:30:00,27.9,4.4,30.41,SSE,166,0.0,2.7,36,0.00,,CLR,0.00,VWS V14.00,2013-02-07 15:30:00,
2013-02-07 10:45:00,28.9,4.7,30.41,ENE,57,0.0,4.0,35,0.00,,CLR,0.00,VWS V14.00,2013-02-07 15:45:00,
2013-02-07 11:00:00,30.0,5.7,30.41,NE,46,0.0,3.6,35,0.00,,OVC100,0.00,VWS V14.00,2013-02-07 16:00:00,
2013-02-07 11:15:00,31.3,5.5,30.38,NE,46,0.0,4.0,33,0.00,,OVC100,0.00,VWS V14.00,2013-02-07 16:15:00,
2013-02-07 11:30:00,32.9,7.0,30.38,NNE,33,0.0,5.1,33,0.00,,OVC100,0.00,VWS V14.00,2013-02-07 16:30:00,
2013-02-07 11:45:00,33.6,6.2,30.38,NE,34,0.0,0.0,31,0.00,,OVC100,0.00,VWS V14.00,2013-02-07 16:45:00,
2013-02-07 12:00:00,34.3,6.1,30.38,NNE,25,0.0,4.7,30,0.00,,OVC100,0.00,VWS V14.00,2013-02-07 17:00:00,
2013-02-07 12:15:00,35.2,6.9,30.35,NNE,27,3.1,4.5,30,0.00,,OVC100,0.00,VWS V14.00,2013-02-07 17:15:00,
2013-02-07 12:30:00,36.1,5.4,30.35,NNE,30,0.0,5.1,27,0.00,,OVC100,0.00,VWS V14.00,2013-02-07 17:30:00,
2013-02-07 12:45:00,36.9,3.5,30.32,South,175,0.0,8.3,24,0.00,,OVC110,0.00,VWS V14.00,2013-02-07 17:45:00,
2013-02-07 13:00:00,36.0,2.7,30.32,ESE,118,6.0,13.0,24,0.00,,OVC110,0.00,VWS V14.00,2013-02-07 18:00:00,
2013-02-07 13:15:00,36.9,3.5,30.32,SSE,167,4.0,8.7,24,0.00,,OVC110,0.00,VWS V14.00,2013-02-07 18:15:00,
2013-02-07 13:30:00,36.3,3.0,30.32,SE,144,0.0,11.2,24,0.00,,OVC110,0.00,VWS V14.00,2013-02-07 18:30:00,
2013-02-07 13:45:00,36.5,3.2,30.32,SE,142,6.5,11.2,24,0.00,,OVC110,0.00,VWS V14.00,2013-02-07 18:45:00,
2013-02-07 14:01:00,35.6,2.4,30.32,SE,135,2.7,10.7,24,0.00,,OVC110,0.00,VWS V14.00,2013-02-07 19:01:00,
2013-02-07 14:16:00,38.5,4.8,30.29,SE,127,5.1,7.4,24,0.00,,OVC110,0.00,VWS V14.00,2013-02-07 19:16:00,
2013-02-07 14:45:00,35.2,3.0,30.29,ESE,117,2.7,9.8,25,0.00,,OVC040,0.00,VWS V14.00,2013-02-07 19:45:00,
2013-02-07 15:00:00,34.7,2.5,30.29,ESE,117,5.6,11.6,25,0.00,,OVC040,0.00,VWS V14.00,2013-02-07 20:00:00,
2013-02-07 15:15:00,34.3,2.2,30.29,SE,143,6.9,11.6,25,0.00,,OVC040,0.00,VWS V14.00,2013-02-07 20:15:00,
2013-02-07 15:30:00,34.9,2.6,30.29,SE,143,7.8,12.1,25,0.00,,OVC040,0.00,VWS V14.00,2013-02-07 20:30:00,
2013-02-07 15:45:00,34.5,2.3,30.29,East,96,4.5,13.0,25,0.00,,OVC040,0.00,VWS V14.00,2013-02-07 20:45:00,
2013-02-07 16:00:00,34.9,2.6,30.29,East,97,0.0,7.8,25,0.00,,OVC040,0.00,VWS V14.00,2013-02-07 21:00:00,
2013-02-07 16:15:00,34.3,-0.6,30.29,SE,127,0.0,7.4,22,0.00,,OVC038,0.00,VWS V14.00,2013-02-07 21:15:00,
2013-02-07 16:30:00,33.8,1.7,30.27,ESE,120,0.0,7.4,25,0.00,,OVC038,0.00,VWS V14.00,2013-02-07 21:30:00,
2013-02-07 16:45:00,33.6,-0.2,30.29,SSE,152,0.0,4.5,23,0.00,,OVC038,0.00,VWS V14.00,2013-02-07 21:45:00,
2013-02-07 17:00:00,33.6,-0.2,30.29,East,96,0.0,4.5,23,0.00,,OVC038,0.00,VWS V14.00,2013-02-07 22:00:00,
2013-02-07 17:15:00,33.3,-0.5,30.27,East,96,0.0,0.0,23,0.00,,OVC038,0.00,VWS V14.00,2013-02-07 22:15:00,
2013-02-07 17:30:00,33.3,-0.5,30.27,ENE,65,0.0,2.7,23,0.00,,OVC038,0.00,VWS V14.00,2013-02-07 22:30:00,
2013-02-07 17:45:00,33.1,-0.7,30.27,SSE,168,0.0,0.0,23,0.00,,OVC038,0.00,VWS V14.00,2013-02-07 22:45:00,
2013-02-07 18:00:00,33.1,-0.7,30.27,SSE,168,0.0,0.0,23,0.00,,OVC038,0.00,VWS V14.00,2013-02-07 23:00:00,
2013-02-07 18:15:00,33.1,-0.7,30.29,SSE,168,0.0,0.0,23,0.00,,OVC038,0.00,VWS V14.00,2013-02-07 23:15:00,
2013-02-07 18:31:00,33.1,-0.7,30.29,SSE,168,0.0,0.0,23,0.00,,OVC038,0.00,VWS V14.00,2013-02-07 23:31:00,
2013-02-07 18:45:00,33.1,-0.7,30.29,NE,54,0.0,0.0,23,0.00,,OVC038,0.00,VWS V14.00,2013-02-07 23:45:00,
2013-02-07 19:00:00,33.1,-0.7,30.29,NE,54,0.0,0.0,23,0.00,,OVC038,0.00,VWS V14.00,2013-02-08 00:00:00,
2013-02-07 19:15:00,33.1,-0.7,30.29,NE,54,0.0,0.0,23,0.00,,OVC038,0.00,VWS V14.00,2013-02-08 00:15:00,
2013-02-07 19:30:00,33.1,-0.7,30.29,NE,54,0.0,0.0,23,0.00,,OVC038,0.00,VWS V14.00,2013-02-08 00:30:00,
2013-02-07 19:45:00,32.9,-0.8,30.29,NE,54,0.0,0.0,23,0.00,,OVC038,0.00,VWS V14.00,2013-02-08 00:45:00,
2013-02-07 20:00:00,32.9,-0.8,30.27,NE,54,0.0,0.0,23,0.00,,OVC038,0.00,VWS V14.00,2013-02-08 01:00:00,
2013-02-07 20:15:00,33.1,-0.7,30.27,NE,54,0.0,0.0,23,0.00,,OVC038,0.00,VWS V14.00,2013-02-08 01:15:00,
2013-02-07 20:30:00,33.1,-0.7,30.27,NE,54,0.0,0.0,23,0.00,,OVC038,0.00,VWS V14.00,2013-02-08 01:30:00,
2013-02-07 20:45:00,33.1,-0.7,30.27,NE,54,0.0,0.0,23,0.00,,OVC042,0.00,VWS V14.00,2013-02-08 01:45:00,
2013-02-07 21:00:00,33.1,-0.7,30.27,NE,54,0.0,0.0,23,0.00,,OVC042,0.00,VWS V14.00,2013-02-08 02:00:00,
2013-02-07 21:15:00,33.1,-0.7,30.27,NE,54,0.0,0.0,23,0.00,,OVC042,0.00,VWS V14.00,2013-02-08 02:15:00,
2013-02-07 21:30:00,33.3,-0.5,30.27,NE,54,0.0,0.0,23,0.00,,OVC042,0.00,VWS V14.00,2013-02-08 02:30:00,
2013-02-07 21:45:00,33.3,-0.5,30.27,NE,54,0.0,0.0,23,0.00,,OVC040,0.00,VWS V14.00,2013-02-08 02:45:00,
2013-02-07 22:00:00,33.3,-0.5,30.27,NE,54,0.0,0.0,23,0.00,,OVC040,0.00,VWS V14.00,2013-02-08 03:00:00,
2013-02-07 22:15:00,33.3,-0.5,30.24,NE,54,0.0,0.0,23,0.00,,OVC040,0.00,VWS V14.00,2013-02-08 03:15:00,
2013-02-07 22:30:00,33.1,-0.7,30.24,NE,54,0.0,0.0,23,0.00,,OVC040,0.00,VWS V14.00,2013-02-08 03:30:00,
2013-02-07 22:45:00,33.1,-0.7,30.24,NE,54,0.0,0.0,23,0.00,,OVC040,0.00,VWS V14.00,2013-02-08 03:45:00,
2013-02-07 23:00:00,32.9,-0.8,30.24,NE,54,0.0,0.0,23,0.00,,OVC042,0.00,VWS V14.00,2013-02-08 04:00:00,
2013-02-07 23:15:00,32.7,0.8,30.21,NE,54,0.0,0.0,25,0.00,,OVC042,0.00,VWS V14.00,2013-02-08 04:15:00,
2013-02-07 23:30:00,32.7,0.8,30.21,NE,54,0.0,0.0,25,0.00,,OVC042,0.00,VWS V14.00,2013-02-08 04:30:00,
2013-02-07 23:45:00,32.7,0.8,30.21,NE,54,0.0,0.0,25,0.00,,OVC029,0.00,VWS V14.00,2013-02-08 04:45:00,